Location: Unspecified
(51.4424°N, 0.0000°E)
Time: 18:50:30
(UTC+00:00)

NOAA 16 DEB - Visible Passes

Search period start: 04 April 2026 00:00
Search period end: 14 April 2026 00:00
Orbit: 818 x 925 km, 98.9° (Epoch: 26 March)

Date Brightness Start Highest point End Pass type
(mag) Time Alt. Az. Time Alt. Az. Time Alt. Az.
4 Apr ? 03:33:13 10° NE 03:37:54 24° E 03:42:29 10° SE visible
5 Apr ? 03:27:36 10° NE 03:32:03 22° E 03:36:25 10° SE visible
6 Apr ? 03:22:00 10° NE 03:26:11 20° E 03:30:18 10° SE visible
7 Apr ? 03:16:27 10° NE 03:20:20 18° E 03:24:09 10° SE visible
8 Apr ? 03:10:55 10° NE 03:14:27 16° E 03:17:56 10° ESE visible
9 Apr ? 03:05:27 10° NE 03:08:33 15° E 03:11:38 10° ESE visible
10 Apr ? 03:00:03 10° NE 03:02:39 13° E 03:05:14 10° ESE visible
10 Apr ? 04:39:01 10° NNE 04:44:52 70° ESE 04:50:34 10° S visible
11 Apr ? 02:54:49 10° ENE 02:56:45 12° E 02:58:39 10° E visible
11 Apr ? 04:33:14 10° NNE 04:39:04 63° ESE 04:44:43 10° S visible
12 Apr ? 02:50:08 10° ENE 02:50:49 10° E 02:51:30 10° E visible
12 Apr ? 04:27:28 10° NNE 04:33:14 58° E 04:38:50 10° S visible
13 Apr ? 04:21:41 10° NNE 04:27:24 52° E 04:32:55 10° S visible
